World > North America > United States > Illinois > Jackson

Hourly Jackson, IL Regional Weather

Feedback E-mail the Weather

Quick WX

Jackson, IL Weather Maps

°F °C°F °C
Jackson Weather Map
UTC Time: 8/13/2022, 05:52
Your Time:

Jackson, IL Regional Weather

Expires:202208130600;;007322
ASUS43 KLOT 130510
RWRIL 

ILLINOIS REGIONAL WEATHER ROUNDUP
NATIONAL WEATHER SERVICE CHICAGO/ROMEOVILLE IL
1200 AM CDT SAT AUG 13 2022

NOTE: "FAIR" INDICATES FEW OR NO CLOUDS BELOW 12,000 FEET WITH NO
SIGNIFICANT WEATHER AND/OR OBSTRUCTIONS TO VISIBILITY.

* THESE STATIONS ARE NOT UNDER NWS QUALITY CONTROL. THEY ALSO MAY NOT
  REPORT WEATHER SUCH AS PRECIPITATION OR FOG.


ILZ064>066-069>071-074>076-080>082-084>086-088>090-092>094-130600-
SOUTH-CENTRAL ILLINOIS
  
CITY           SKY/WX    TMP DP  RH WIND       PRES   REMARKS
CARBONDALE     CLEAR     62  61  96 S3        30.13F                  
CAIRO*         CLEAR     65  61  85 CALM      30.13S                  
EFFINGHAM*     CLEAR     64  60  86 NE3       30.18S                  
MARION         CLEAR     62  62 100 CALM      30.14F                  
MT. VERNON     CLEAR     64  62  93 NE3       30.15R                  
CENTRALIA*     CLEAR     63  62  97 E3        30.14R                  
SALEM*         CLEAR     67  62  85 CALM      30.15S                  
METROPOLIS*    CLEAR     61  60  97 CALM      30.14S                  
$$


SKY/WX - Weather  TMP - Temperature  DP - Dew Point  RH - Humidity
WIND - Wind Direction/Speed PRES - Barometric Pressure VSB - Visibility
WCI - Wind Chill Index E13G22 Wind - East Wind 13 mph/Gusts of 22 mph

Trending Headlines

Jackson Radar Loop



Jackson Quick Facts


National Two Day Weather Forecast


E-mail the Jackson Weather Forecast

Voice your opinion or tell us about page issues...